STARLINK-36828

Last updated on Sun Mar 22 2026 00:02:05 GMT+0000 (Coordinated Universal Time)

1 67857U 26034H 26080.42271495 .00143243 00000+0 71616-3 0 9998 2 67857 53.1580 152.5037 0000569 65.6350 294.4732 15.80907424 5797
UTC large
Height (km)
Speed (km/s)
/
Latitude / Longitude
Inclination (degrees)
Orbital Period (minutes)
Azimuth
Elevation
Range (km)
Doppler Factor

Next 0 passes for location: London (51.5072 / 0.1276)

Sorry there are no passes over London.